Вернуться в каталог

STARLINK-37892

АктивенСвязьSSO
NORAD 69485·PAYLOAD·🇺🇸 United States

Запущен Jun 11, 2026 с Vandenberg Space Force Base

Loading…

Ближайшие Пролёты (ближайшие 24 часа)

TLE

СвежийSource: CelesTrak SupGP

Эпоха: Sep 14, 2026, 22:38 UTC

1 69485C 26131H   26257.94354167  .00038814  00000+0  12050-2 0  2576
2 69485  97.2838 278.8642 0001273  94.5184 289.0822 15.33416203    12

Отслеживайте STARLINK-37892 в реальном времени с AllMySat

Download on the App Store